Wind_Speed
5 4 3 4 3 3 3 3 3 2 2 3 3 3 4 5 5 5 6 6 6 7 7 8 7 7 7 8 7 6 6 5 5 6 7 7 8 9 9 9 9 10 10
6 5 4 4 3 3 3 3 2 2 3 3 4 4 5 5 5 5 6 7 7 7 8 8 9 9 8 8 8 7 6 6 7 7 8 9 9 10 9 9 9 10 10
7 6 6 5 4 4 4 4 3 4 4 4 5 5 6 6 6 6 7 7 7 8 8 9 10 9 9 9 9 9 8 8 8 8 9 9 9 10 9 9 9 10 10
7 7 7 6 6 5 5 5 4 5 6 6 6 7 7 7 7 8 8 8 9 9 10 10 10 10 10 10 10 10 10 9 9 9 10 10 10 10 11 11 11 11 11
7 8 8 7 7 7 7 7 6 6 7 7 7 8 8 8 9 9 10 10 10 10 11 11 11 11 11 11 11 11 10 10 10 10 10 10 11 11 12 13 13 12 12
8 8 8 8 8 8 9 8 8 8 8 9 9 10 10 10 11 11 11 12 12 12 12 12 13 12 12 12 11 11 10 10 10 10 10 10 11 12 13 13 13 14 14
9 9 8 8 9 9 9 9 9 10 10 11 11 11 12 12 12 12 12 12 13 14 14 15 14 13 13 13 12 12 12 11 11 11 12 12 12 13 13 14 14 15 15
9 9 10 9 9 9 9 10 10 11 12 12 13 13 13 13 13 13 13 13 14 14 15 15 15 14 14 13 13 13 13 13 13 13 13 14 14 14 14 14 14 14 15
10 10 10 11 10 10 10 10 11 12 13 13 14 14 14 14 14 14 14 15 15 15 15 15 15 15 15 15 15 14 14 15 15 15 15 15 15 16 16 15 15 16 16
11 11 10 10 10 11 11 11 12 12 13 14 14 14 14 14 14 14 14 15 16 16 16 16 16 16 16 16 16 16 15 15 16 16 16 17 17 16 17 17 17 18 18
11 12 12 11 11 12 13 13 13 14 14 14 14 14 15 15 15 15 15 16 16 17 17 17 17 17 17 17 17 16 16 16 17 18 18 19 19 18 18 18 18 19 19
11 12 13 13 14 14 14 14 14 14 14 15 15 16 16 15 15 16 16 16 16 16 17 17 17 17 17 17 17 17 17 17 17 17 18 18 19 19 19 19 20 20 20
14 14 14 14 15 15 14 15 14 15 15 16 16 16 17 17 17 17 17 17 17 18 18 18 18 18 18 18 18 18 18 19 19 19 18 18 17 18 19 19 20 21 22
14 15 15 15 15 15 15 16 16 16 16 17 17 17 17 18 18 18 18 18 19 19 20 20 20 20 19 19 19 19 19 19 19 19 18 18 18 19 19 20 20 21 22
15 15 15 16 16 16 16 17 17 18 18 18 19 19 19 19 19 19 19 19 20 21 22 21 20 20 20 20 20 20 20 20 19 19 19 20 20 21 21 21 21 21 22
16 17 17 17 18 17 17 18 18 19 20 20 20 20 20 20 21 21 21 21 21 22 22 22 21 21 21 21 21 21 21 21 20 20 20 20 20 21 21 21 21 22 23
19 19 19 19 19 19 18 19 20 20 21 21 21 21 21 21 22 22 22 23 23 23 24 22 22 23 23 23 22 22 22 22 21 21 21 21 21 21 21 21 22 22 23
21 21 21 21 21 20 20 21 21 21 21 22 22 22 22 22 23 23 24 25 25 25 25 24 24 24 24 24 23 23 23 23 23 23 22 22 23 23 23 23 23 23 24
22 22 22 22 22 22 22 23 22 22 22 23 23 23 24 24 25 25 26 26 27 26 27 26 25 25 25 24 23 23 23 23 24 24 24 24 24 24 24 24 24 24 24
22 22 22 23 24 24 24 24 24 23 23 24 24 25 26 26 26 27 27 27 27 28 27 27 26 25 25 25 25 25 24 24 25 25 25 26 25 25 25 25 25 25 26
23 23 24 24 25 25 25 25 25 25 25 25 26 26 26 27 28 28 27 27 28 28 28 28 26 26 25 25 26 25 25 25 25 25 26 26 26 27 27 27 27 27 27
24 24 24 25 25 25 25 25 25 26 26 26 27 28 27 27 27 27 26 26 27 27 27 27 26 26 26 26 25 25 26 26 26 26 27 27 27 28 28 28 27 28 28
25 25 26 25 26 25 26 26 26 27 27 28 28 28 29 28 28 27 27 28 28 27 27 27 27 27 27 27 27 26 26 26 27 27 28 28 28 28 29 29 29 29 29
26 25 26 26 26 26 27 27 27 28 29 29 29 29 29 29 28 28 28 28 27 27 27 28 27 27 27 28 28 28 28 28 29 29 29 29 29 30 30 30 30 30 31
27 26 27 27 27 27 28 28 29 29 29 30 30 30 29 29 28 28 28 28 28 29 29 29 29 29 29 29 29 29 29 29 29 29 29 29 30 30 30 31 31 31 31
27 28 28 28 28 28 29 29 29 30 30 31 30 30 29 29 28 28 28 29 30 30 30 30 31 30 30 30 30 30 30 29 29 29 29 28 29 29 29 29 29 30 30
Wind_Direction
357 350 348 345 347 352 358 4 9 11 8 8 4 360 355 352 346 340 343 344 342 338 332 329 322 309 308 310 304 296 276 274 275 276 277 276 274 272 272 273 270 261 253
343 345 337 334 332 330 327 331 335 339 341 340 340 342 340 338 333 331 335 337 336 337 335 331 327 322 318 306 304 308 299 290 284 278 280 278 271 268 271 272 273 267 257
331 334 334 329 325 319 315 317 325 322 319 320 325 329 331 331 327 326 327 329 329 330 329 325 323 321 321 316 315 311 306 296 286 280 281 280 271 270 274 272 273 271 266
319 322 324 320 314 305 301 303 306 313 315 318 320 321 322 325 324 322 319 318 319 320 319 321 325 322 315 310 306 303 296 295 292 286 280 277 276 276 273 270 269 267 265
314 313 314 314 308 298 296 295 297 305 309 315 320 319 321 320 317 318 319 320 322 322 319 320 321 320 315 310 305 302 296 294 292 287 282 278 276 277 275 272 267 262 261
310 310 308 309 307 297 292 290 291 299 303 310 312 309 313 314 316 316 317 317 316 316 316 315 314 314 313 310 306 304 300 296 292 286 283 281 278 276 273 272 267 262 259
307 304 304 303 302 298 293 291 293 298 304 307 307 306 310 309 311 313 313 314 312 311 313 313 312 313 314 313 307 302 300 298 294 290 287 284 281 278 275 271 268 262 259
296 296 297 296 295 295 295 292 294 298 301 303 305 306 307 307 308 310 311 311 312 313 314 314 313 312 312 312 307 304 301 297 293 291 290 286 284 280 277 275 272 266 262
295 298 293 290 292 293 296 293 293 295 299 300 300 303 304 305 306 307 308 307 308 311 312 312 313 312 311 311 307 303 300 297 292 289 289 287 284 280 277 274 272 270 267
292 293 288 287 294 292 293 295 295 294 295 296 295 299 304 304 305 306 305 307 307 308 310 311 311 311 310 310 308 306 305 301 294 290 287 286 283 279 278 276 275 272 269
289 288 285 291 293 296 293 293 294 292 292 294 297 299 303 303 304 306 306 307 308 309 309 309 308 308 309 309 307 309 307 305 301 294 289 286 283 280 278 277 275 274 271
284 287 289 291 293 293 292 291 292 294 295 297 299 299 299 300 302 305 307 307 308 310 310 310 309 308 308 308 306 307 305 304 302 301 298 290 284 281 279 277 276 275 272
282 287 290 292 292 292 289 289 291 292 294 297 299 299 299 299 300 301 302 304 305 307 308 310 308 307 306 305 303 303 303 302 300 300 298 292 288 285 283 280 277 275 273
283 287 290 294 294 291 288 288 289 290 292 295 298 299 298 297 296 297 298 300 303 305 307 306 305 304 303 303 302 301 301 301 299 297 296 291 289 288 285 282 280 278 275
283 288 291 291 293 294 293 291 290 289 292 294 296 298 298 296 295 294 295 298 300 303 305 304 302 302 301 301 301 301 299 299 297 295 293 291 291 290 288 284 281 279 276
281 284 287 288 290 292 293 292 290 291 292 294 294 294 295 296 297 294 294 297 299 301 303 302 301 301 300 299 300 300 298 297 295 292 292 291 290 291 288 285 283 281 278
278 280 283 284 287 289 291 292 291 290 292 293 294 293 294 294 294 294 294 296 297 299 300 300 299 300 299 298 298 298 297 296 294 292 290 290 289 288 286 284 283 283 280
275 278 279 280 282 285 288 289 289 288 290 291 292 292 294 293 293 293 295 299 298 299 299 298 297 297 298 298 296 297 296 295 292 290 290 290 289 287 286 285 284 282 280
273 275 276 277 279 281 284 285 287 287 290 292 291 291 291 292 292 294 295 298 298 297 297 296 295 295 296 296 295 295 295 294 292 290 289 289 290 289 288 286 285 282 280
273 274 276 278 278 280 282 283 286 287 290 292 292 290 291 291 292 293 294 297 297 296 296 296 293 293 293 293 292 292 293 292 291 290 289 289 288 287 286 285 283 282 279
273 275 276 277 279 281 281 282 283 286 288 289 291 292 291 292 292 294 296 295 296 296 296 296 294 292 292 292 292 292 292 292 292 290 290 289 288 287 285 284 283 281 279
272 274 276 276 278 279 281 281 281 283 285 286 289 291 292 293 294 294 296 296 297 297 296 295 294 293 292 292 293 293 293 292 293 292 291 289 288 287 285 283 282 281 278
272 273 276 278 279 279 282 282 282 284 287 286 288 289 291 292 293 293 293 295 296 296 297 297 295 295 294 294 294 294 294 294 293 293 292 290 289 287 285 284 282 280 278
271 274 276 278 280 280 282 283 282 283 285 287 289 291 292 292 292 292 293 295 295 296 296 297 295 294 295 296 296 295 294 293 293 292 292 290 289 287 286 284 283 281 280
271 273 275 276 278 280 281 282 282 282 283 285 287 289 290 291 291 292 292 294 295 295 294 295 295 294 294 295 295 294 293 293 293 293 292 291 289 288 287 285 284 282 280
271 272 272 274 277 279 281 282 281 282 283 284 286 288 289 289 291 293 293 294 294 294 294 294 294 294 294 294 295 295 295 294 293 293 292 292 291 290 289 287 285 284 282
Height
5902 5901 5900 5899 5898 5896 5895 5894 5893 5892 5891 5890 5889 5888 5886 5885 5883 5882 5881 5879 5877 5876 5874 5872 5870 5868 5867 5865 5863 5861 5860 5859 5859 5859 5859 5858 5858 5858 5858 5857 5857 5856 5856
5902 5901 5900 5898 5897 5897 5895 5894 5893 5892 5891 5890 5889 5887 5886 5884 5883 5882 5880 5879 5877 5875 5873 5872 5869 5867 5865 5864 5862 5860 5859 5858 5858 5858 5857 5857 5857 5856 5856 5856 5855 5854 5854
5902 5901 5899 5898 5897 5896 5895 5894 5893 5892 5890 5889 5888 5887 5886 5884 5882 5881 5879 5878 5876 5874 5872 5870 5869 5866 5864 5863 5861 5860 5858 5857 5856 5856 5856 5855 5855 5854 5854 5853 5853 5853 5852
5901 5900 5899 5898 5897 5896 5894 5893 5892 5891 5890 5889 5887 5886 5884 5883 5881 5880 5878 5877 5875 5873 5871 5869 5867 5865 5863 5861 5860 5858 5857 5856 5855 5854 5853 5853 5852 5852 5852 5851 5850 5850 5850
5900 5899 5898 5896 5895 5894 5893 5892 5891 5890 5889 5888 5886 5885 5883 5882 5880 5878 5877 5875 5873 5872 5869 5867 5865 5864 5862 5860 5858 5856 5855 5854 5853 5852 5851 5851 5850 5850 5849 5849 5848 5848 5848
5899 5897 5896 5895 5894 5893 5892 5891 5890 5889 5888 5886 5885 5884 5882 5880 5879 5877 5875 5874 5872 5870 5868 5865 5863 5861 5859 5858 5856 5854 5853 5851 5850 5849 5849 5848 5848 5847 5846 5846 5845 5845 5845
5897 5895 5894 5893 5892 5891 5890 5889 5888 5887 5886 5885 5883 5882 5880 5878 5877 5875 5873 5871 5870 5868 5865 5863 5861 5859 5857 5855 5853 5852 5850 5849 5848 5847 5846 5846 5845 5844 5843 5843 5842 5842 5841
5895 5893 5892 5891 5890 5889 5888 5887 5886 5885 5884 5882 5881 5880 5878 5876 5874 5873 5871 5869 5867 5865 5863 5861 5859 5856 5855 5853 5851 5849 5848 5846 5845 5844 5843 5842 5841 5840 5840 5839 5839 5838 5838
5893 5891 5890 5888 5887 5886 5885 5884 5883 5882 5881 5880 5878 5877 5876 5874 5872 5870 5868 5866 5864 5862 5860 5858 5856 5854 5852 5850 5848 5846 5845 5843 5842 5841 5840 5839 5838 5837 5836 5835 5835 5835 5834
5890 5889 5887 5886 5885 5884 5883 5882 5881 5879 5878 5877 5875 5874 5873 5871 5869 5867 5865 5863 5861 5859 5857 5855 5853 5851 5848 5847 5845 5843 5841 5839 5838 5836 5835 5835 5833 5832 5831 5831 5830 5830 5830
5888 5886 5885 5884 5883 5881 5880 5879 5878 5877 5875 5874 5872 5871 5869 5868 5866 5863 5861 5859 5857 5855 5853 5851 5849 5847 5845 5843 5841 5839 5837 5836 5834 5832 5831 5830 5828 5827 5826 5826 5825 5825 5825
5885 5884 5882 5881 5880 5879 5877 5876 5875 5874 5872 5871 5869 5868 5866 5864 5862 5860 5858 5856 5854 5852 5849 5847 5845 5843 5841 5839 5837 5835 5833 5831 5829 5827 5826 5824 5823 5822 5821 5821 5820 5819 5819
5881 5881 5879 5878 5877 5875 5874 5873 5872 5870 5869 5867 5866 5864 5862 5860 5858 5856 5854 5852 5850 5848 5845 5843 5841 5839 5837 5834 5832 5831 5828 5826 5824 5823 5821 5819 5818 5817 5815 5815 5814 5814 5813
5878 5877 5876 5875 5874 5872 5871 5869 5868 5866 5865 5863 5861 5860 5857 5856 5854 5852 5850 5848 5846 5844 5841 5839 5837 5834 5832 5830 5828 5826 5824 5821 5819 5817 5816 5814 5812 5811 5810 5809 5808 5807 5807
5874 5873 5872 5871 5870 5868 5866 5865 5863 5862 5860 5859 5857 5855 5853 5851 5849 5847 5845 5843 5841 5839 5837 5834 5832 5830 5827 5825 5823 5821 5819 5816 5814 5812 5810 5808 5807 5805 5804 5803 5802 5801 5800
5869 5869 5868 5867 5865 5864 5862 5860 5859 5857 5856 5854 5852 5850 5848 5846 5844 5842 5840 5838 5836 5834 5831 5829 5827 5824 5822 5820 5817 5815 5813 5811 5809 5807 5805 5803 5801 5799 5798 5797 5796 5795 5794
5865 5864 5863 5862 5861 5859 5857 5855 5854 5852 5851 5849 5847 5845 5843 5841 5839 5837 5834 5832 5830 5828 5826 5823 5821 5818 5816 5814 5811 5809 5807 5805 5803 5801 5799 5797 5795 5794 5792 5791 5789 5788 5787
5859 5858 5857 5856 5855 5854 5852 5850 5849 5847 5846 5844 5842 5840 5837 5835 5833 5831 5829 5826 5824 5822 5820 5817 5814 5812 5810 5807 5805 5803 5800 5798 5796 5794 5793 5791 5789 5787 5785 5784 5783 5781 5780
5853 5853 5852 5850 5849 5848 5846 5845 5843 5842 5840 5838 5836 5834 5832 5829 5827 5825 5822 5820 5817 5815 5813 5810 5808 5805 5803 5801 5798 5796 5794 5792 5790 5788 5786 5784 5782 5780 5779 5777 5776 5774 5773
5847 5846 5845 5844 5843 5841 5840 5838 5837 5836 5834 5832 5829 5827 5825 5823 5820 5818 5816 5813 5810 5808 5805 5803 5800 5798 5796 5794 5791 5789 5787 5785 5782 5780 5778 5776 5775 5773 5771 5769 5768 5767 5766
5840 5839 5838 5837 5836 5835 5833 5832 5830 5829 5828 5825 5823 5821 5818 5816 5813 5811 5808 5806 5803 5801 5798 5795 5793 5790 5788 5786 5784 5782 5779 5777 5775 5773 5770 5768 5767 5765 5763 5762 5760 5759 5758
5833 5832 5831 5830 5829 5828 5827 5825 5824 5822 5820 5818 5816 5814 5811 5809 5806 5804 5801 5799 5796 5793 5791 5788 5785 5783 5781 5779 5777 5774 5772 5769 5767 5765 5763 5760 5758 5757 5755 5753 5752 5750 5749
5825 5825 5824 5823 5822 5821 5819 5818 5817 5815 5813 5811 5809 5806 5804 5801 5799 5797 5794 5791 5789 5786 5783 5781 5778 5776 5774 5771 5769 5767 5764 5762 5759 5757 5754 5752 5750 5748 5746 5745 5743 5741 5740
5818 5817 5816 5816 5814 5813 5812 5810 5809 5808 5806 5804 5801 5799 5796 5794 5791 5789 5787 5784 5782 5779 5776 5774 5771 5769 5766 5764 5761 5758 5756 5753 5751 5749 5746 5744 5741 5739 5737 5735 5734 5732 5731
5810 5809 5809 5808 5807 5805 5804 5802 5801 5800 5798 5796 5793 5791 5788 5786 5784 5781 5779 5777 5775 5772 5769 5766 5763 5761 5758 5755 5753 5750 5747 5745 5742 5740 5737 5735 5732 5730 5728 5726 5724 5722 5721
5801 5801 5801 5800 5799 5798 5796 5795 5793 5792 5790 5787 5785 5783 5780 5778 5776 5774 5772 5769 5767 5764 5761 5758 5755 5752 5750 5747 5744 5741 5738 5736 5733 5730 5728 5725 5723 5720 5718 5716 5714 5713 5711